CT2IRK-11 Weather Reports


time (UTC)temp
C
wind
direction
speed
KPH
gust
KPH
rain 1hr
cm
rain 24hr
cm
rain mn
cm
humidity
%
barometer
mb
20190617131725 27 261 12.9 17.7 0.00 0.00 0.00 43 1008.7
20190617131646 27 258 12.9 17.7 0.00 0.00 0.00 43 1008.7
20190617131224 28 261 9.7 17.7 0.00 0.00 0.00 42 1008.7
20190617131146 28 270 9.7 17.7 0.00 0.00 0.00 42 1008.7
20190617130724 28 170 9.7 17.7 0.00 0.00 0.00 42 1008.7
20190617130645 28 208 11.3 17.7 0.00 0.00 0.00 42 1008.7
20190617130224 28 237 8.0 17.7 0.00 0.00 0.00 42 1008.9
20190617130147 28 196 11.3 17.7 0.00 0.00 0.00 42 1008.9
20190617125723 27 258 11.3 17.7 0.00 0.00 0.00 42 1008.9
20190617125646 27 261 9.7 17.7 0.00 0.00 0.00 42 1008.9
20190617125224 27 247 9.7 17.7 0.00 0.00 0.00 43 1009.0
20190617125145 27 244 9.7 17.7 0.00 0.00 0.00 43 1009.0
20190617124724 26 270 8.0 17.7 0.00 0.00 0.00 44 1009.0
20190617124646 26 298 9.7 17.7 0.00 0.00 0.00 44 1009.0
20190617124224 26 292 11.3 17.7 0.00 0.00 0.00 44 1009.0
20190617124146 26 237 8.0 17.7 0.00 0.00 0.00 44 1009.1
20190617123724 26 243 9.7 17.7 0.00 0.00 0.00 44 1009.1
20190617123646 26 257 9.7 17.7 0.00 0.00 0.00 44 1009.1
20190617123224 26 223 11.3 17.7 0.00 0.00 0.00 44 1009.1
20190617123145 26 212 9.7 17.7 0.00 0.00 0.00 44 1009.1
20190617122723 26 225 11.3 17.7 0.00 0.00 0.00 45 1009.2
20190617122646 26 227 14.5 17.7 0.00 0.00 0.00 45 1009.2
20190617122224 26 244 14.5 17.7 0.00 0.00 0.00 43 1009.2
20190617122145 27 253 14.5 17.7 0.00 0.00 0.00 43 1009.2
20190617121724 26 213 8.0 17.7 0.00 0.00 0.00 44 1009.4
20190617121645 26 247 8.0 17.7 0.00 0.00 0.00 44 1009.4
20190617121223 27 270 11.3 17.7 0.00 0.00 0.00 42 1009.4
20190617121147 27 262 12.9 17.7 0.00 0.00 0.00 42 1009.4
20190617120725 26 246 4.8 14.5 0.00 0.00 0.00 44 1009.4
20190617120646 26 180 8.0 14.5 0.00 0.00 0.00 44 1009.4
20190617120225 26 229 9.7 14.5 0.00 0.00 0.00 44 1009.6
20190617120146 26 251 9.7 14.5 0.00 0.00 0.00 44 1009.6
20190617115724 25 248 4.8 14.5 0.00 0.00 0.00 46 1009.6
20190617115646 26 239 8.0 14.5 0.00 0.00 0.00 46 1009.6
20190617115224 26 270 11.3 14.5 0.00 0.00 0.00 45 1009.6
20190617115145 26 261 9.7 14.5 0.00 0.00 0.00 45 1009.6
20190617114724 26 295 9.7 14.5 0.00 0.00 0.00 45 1009.6
20190617114645 26 281 9.7 14.5 0.00 0.00 0.00 45 1009.6
20190617114223 26 270 11.3 14.5 0.00 0.00 0.00 45 1009.6
20190617114147 26 263 9.7 14.5 0.00 0.00 0.00 45 1009.8
20190617113723 26 270 8.0 14.5 0.00 0.00 0.00 45 1009.9
20190617113646 25 257 6.4 14.5 0.00 0.00 0.00 45 1009.9
20190617113225 25 246 6.4 14.5 0.00 0.00 0.00 46 1009.9
20190617113146 25 249 6.4 14.5 0.00 0.00 0.00 46 1009.9
20190617112724 25 258 8.0 14.5 0.00 0.00 0.00 46 1010.1
20190617112646 25 270 9.7 14.5 0.00 0.00 0.00 46 1010.1
20190617112146 25 244 6.4 14.5 0.00 0.00 0.00 46 1010.1
20190617111725 25 225 6.4 14.5 0.00 0.00 0.00 46 1010.1
20190617111646 25 225 6.4 14.5 0.00 0.00 0.00 46 1010.2
20190617111224 25 261 8.0 14.5 0.00 0.00 0.00 46 1010.2
20190617111146 25 274 9.7 14.5 0.00 0.00 0.00 46 1010.2
20190617110723 25 267 8.0 14.5 0.00 0.00 0.00 47 1010.2
20190617110646 25 261 4.8 14.5 0.00 0.00 0.00 48 1010.2
20190617110225 24 280 6.4 14.5 0.00 0.00 0.00 48 1010.2
20190617110146 24 282 6.4 14.5 0.00 0.00 0.00 48 1010.2
20190617105723 24 262 9.7 14.5 0.00 0.00 0.00 48 1010.2
20190617105645 23 297 6.4 14.5 0.00 0.00 0.00 48 1010.2
20190617105223 24 225 9.7 14.5 0.00 0.00 0.00 48 1010.3
20190617105146 23 252 9.7 14.5 0.00 0.00 0.00 50 1010.3
20190617104724 23 292 8.0 14.5 0.00 0.00 0.00 50 1010.3
20190617104645 23 292 8.0 14.5 0.00 0.00 0.00 50 1010.3
20190617104223 23 292 8.0 14.5 0.00 0.00 0.00 50 1010.3
20190617104145 23 299 8.0 14.5 0.00 0.00 0.00 50 1010.4
20190617103724 22 347 6.4 14.5 0.00 0.00 0.00 51 1010.4
20190617103645 22 7 4.8 14.5 0.00 0.00 0.00 51 1010.4
20190617103224 22 72 4.8 14.5 0.00 0.00 0.00 51 1010.4
20190617103145 22 9 6.4 14.5 0.00 0.00 0.00 51 1010.4
20190617102724 22 306 9.7 14.5 0.00 0.00 0.00 51 1010.4
20190617102646 22 322 8.0 14.5 0.00 0.00 0.00 51 1010.4
20190617102224 22 325 8.0 14.5 0.00 0.00 0.00 51 1010.4
20190617102145 22 355 4.8 14.5 0.00 0.00 0.00 51 1010.4
20190617101723 21 54 6.4 14.5 0.00 0.00 0.00 53 1010.5
20190617101645 21 53 4.8 14.5 0.00 0.00 0.00 53 1010.6
20190617101223 21 32 8.0 14.5 0.00 0.00 0.00 53 1010.6
20190617101145 21 46 4.8 14.5 0.00 0.00 0.00 54 1010.6
20190617100723 21 295 4.8 14.5 0.00 0.00 0.00 53 1010.6
20190617100646 21 282 6.4 14.5 0.00 0.00 0.00 53 1010.6
20190617100222 21 303 8.0 14.5 0.00 0.00 0.00 54 1010.8
20190617100146 21 330 6.4 14.5 0.00 0.00 0.00 55 1010.8
20190617095724 21 46 6.4 14.5 0.00 0.00 0.00 54 1010.8
20190617095646 21 43 8.0 14.5 0.00 0.00 0.00 54 1010.8
20190617095224 21 301 9.7 14.5 0.00 0.00 0.00 54 1010.9
20190617095145 21 315 9.7 14.5 0.00 0.00 0.00 55 1010.9
20190617094723 20 320 6.4 14.5 0.00 0.00 0.00 57 1010.9
20190617094645 20 3 9.7 14.5 0.00 0.00 0.00 57 1010.9
20190617094223 20 279 8.0 14.5 0.00 0.00 0.00 58 1010.9
20190617094145 19 358 6.4 14.5 0.00 0.00 0.00 59 1010.9
20190617093723 19 13 8.0 14.5 0.00 0.00 0.00 59 1010.9
20190617093646 19 352 8.0 14.5 0.00 0.00 0.00 58 1010.9
20190617093222 20 318 4.8 14.5 0.00 0.00 0.00 59 1010.9
20190617093146 20 20 6.4 14.5 0.00 0.00 0.00 59 1010.9
20190617092724 19 348 4.8 14.5 0.00 0.00 0.00 60 1011.0
20190617092646 18 32 6.4 14.5 0.00 0.00 0.00 60 1011.0
20190617092224 18 97 1.6 14.5 0.00 0.00 0.00 61 1011.0
20190617092145 18 67 3.2 14.5 0.00 0.00 0.00 61 1011.0
20190617091723 18 104 6.4 14.5 0.00 0.00 0.00 61 1011.0
20190617091645 18 43 8.0 14.5 0.00 0.00 0.00 61 1011.1
20190617091223 18 313 6.4 14.5 0.00 0.00 0.00 61 1011.2
20190617091145 18 315 4.8 14.5 0.00 0.00 0.00 62 1011.2
20190617090723 18 323 9.7 14.5 0.00 0.00 0.00 62 1011.2
20190617090646 18 336 8.0 14.5 0.00 0.00 0.00 62 1011.1
20190617090222 18 329 9.7 14.5 0.00 0.00 0.00 62 1011.1
20190617090146 18 343 8.0 14.5 0.00 0.00 0.00 62 1011.1
20190617085722 18 42 8.0 14.5 0.00 0.00 0.00 63 1011.1
20190617085646 18 19 8.0 14.5 0.00 0.00 0.00 63 1011.1
20190617085223 18 0 8.0 14.5 0.00 0.00 0.00 64 1011.3
20190617085146 18 355 8.0 14.5 0.00 0.00 0.00 64 1011.3
20190617084722 18 311 8.0 14.5 0.00 0.00 0.00 63 1011.3
20190617084646 18 308 8.0 14.5 0.00 0.00 0.00 63 1011.3
20190617084223 18 28 9.7 14.5 0.00 0.00 0.00 62 1011.3
20190617084145 18 34 8.0 14.5 0.00 0.00 0.00 61 1011.0
20190617083723 18 14 9.7 14.5 0.00 0.00 0.00 61 1011.0
20190617083646 18 338 11.3 14.5 0.00 0.00 0.00 61 1011.0
20190617083223 18 19 8.0 14.5 0.00 0.00 0.00 62 1011.0
20190617083145 18 54 8.0 14.5 0.00 0.00 0.00 62 1011.0
20190617082723 18 65 8.0 14.5 0.00 0.00 0.00 61 1011.3
20190617082645 18 77 8.0 14.5 0.00 0.00 0.00 61 1011.3
20190617082223 18 59 9.7 14.5 0.00 0.00 0.00 62 1011.3
20190617082146 18 78 9.7 14.5 0.00 0.00 0.00 62 1011.3
20190617081722 18 47 8.0 14.5 0.00 0.00 0.00 62 1011.3
20190617081646 18 38 9.7 14.5 0.00 0.00 0.00 62 1011.3
20190617081222 18 31 9.7 14.5 0.00 0.00 0.00 62 1011.3
20190617081146 18 27 9.7 14.5 0.00 0.00 0.00 62 1011.3
20190617080724 18 22 11.3 14.5 0.00 0.00 0.00 61 1011.3
20190617080645 18 28 9.7 14.5 0.00 0.00 0.00 61 1011.3
20190617080223 18 34 8.0 14.5 0.00 0.00 0.00 61 1011.3
20190617080145 18 351 8.0 14.5 0.00 0.00 0.00 62 1011.3
20190617075723 18 32 9.7 14.5 0.00 0.00 0.00 61 1011.3
20190617075645 19 350 9.7 14.5 0.00 0.00 0.00 60 1011.3
20190617075223 20 354 3.2 14.5 0.00 0.00 0.00 60 1011.1
20190617075144 19 315 4.8 14.5 0.00 0.00 0.00 60 1011.1
20190617074723 19 58 4.8 14.5 0.00 0.00 0.00 62 1011.1
20190617074645 20 74 4.8 14.5 0.00 0.00 0.00 61 1011.1
20190617074223 19 45 4.8 14.5 0.00 0.00 0.00 61 1011.1
20190617074145 19 55 4.8 14.5 0.00 0.00 0.00 62 1011.2
20190617073723 18 22 3.2 14.5 0.00 0.00 0.00 63 1011.2
20190617073644 18 22 4.8 14.5 0.00 0.00 0.00 62 1011.2
20190617073222 19 333 3.2 14.5 0.00 0.00 0.00 62 1011.2
20190617073146 18 22 1.6 14.5 0.00 0.00 0.00 62 1011.2
20190617072722 18 41 4.8 14.5 0.00 0.00 0.00 64 1011.5
20190617072645 17 11 4.8 14.5 0.00 0.00 0.00 66 1011.5
20190617072222 17 312 3.2 14.5 0.00 0.00 0.00 65 1011.5
20190617072144 17 271 3.2 14.5 0.00 0.00 0.00 66 1011.5
20190617071722 17 303 3.2 14.5 0.00 0.00 0.00 65 1011.3
20190617071646 17 329 3.2 14.5 0.00 0.00 0.00 66 1011.3
20190617071223 17 42 3.2 14.5 0.00 0.00 0.00 68 1011.3
20190617071145 17 46 1.6 14.5 0.00 0.00 0.00 68 1011.3
20190617070722 16 57 4.8 14.5 0.00 0.00 0.00 69 1011.3
20190617070644 16 9 4.8 14.5 0.00 0.00 0.00 69 1011.3
20190617070223 16 22 6.4 14.5 0.00 0.00 0.00 69 1011.3
20190617070145 16 57 6.4 14.5 0.00 0.00 0.00 69 1011.3
20190617065723 17 3 6.4 14.5 0.00 0.00 0.00 68 1011.3
20190617065644 16 45 6.4 14.5 0.00 0.00 0.00 69 1011.3
20190617065222 16 37 4.8 14.5 0.00 0.00 0.00 69 1011.6
20190617065144 16 45 4.8 14.5 0.00 0.00 0.00 69 1011.6
20190617064722 16 56 0.0 14.5 0.00 0.00 0.00 69 1011.6
20190617064646 16 11 0.0 14.5 0.00 0.00 0.00 69 1011.6
20190617064223 15 17 0.0 14.5 0.00 0.00 0.00 70 1011.6
20190617064144 15 287 0.0 14.5 0.00 0.00 0.00 69 1011.6
20190617063722 16 276 0.0 14.5 0.00 0.00 0.00 70 1011.6
20190617063644 16 332 0.0 14.5 0.00 0.00 0.00 70 1011.6
20190617063222 16 38 0.0 14.5 0.00 0.00 0.00 69 1011.6
20190617063144 16 5 0.0 14.5 0.00 0.00 0.00 69 1011.6
20190617062722 15 170 0.0 14.5 0.00 0.00 0.00 71 1011.8
20190617062645 15 267 0.0 14.5 0.00 0.00 0.00 71 1011.8
20190617062223 15 273 0.0 14.5 0.00 0.00 0.00 73 1011.8
20190617062145 15 284 0.0 14.5 0.00 0.00 0.00 74 1011.8
20190617061723 13 217 0.0 14.5 0.00 0.00 0.00 76 1011.7
20190617061645 13 233 0.0 14.5 0.00 0.00 0.00 76 1011.7
20190617061223 15 248 0.0 14.5 0.00 0.00 0.00 77 1011.7
20190617061145 14 228 0.0 14.5 0.00 0.00 0.00 75 1011.7
20190617060723 13 84 0.0 14.5 0.00 0.00 0.00 78 1011.7
20190617060645 13 1 0.0 14.5 0.00 0.00 0.00 78 1011.7
20190617060223 12 43 0.0 14.5 0.00 0.00 0.00 83 1011.4
20190617060145 12 37 1.6 14.5 0.00 0.00 0.00 83 1011.4
20190617055722 12 178 0.0 14.5 0.00 0.00 0.00 84 1011.4
20190617055645 12 225 0.0 14.5 0.00 0.00 0.00 84 1011.4
20190617055223 11 232 0.0 14.5 0.00 0.00 0.00 85 1011.1
20190617055145 11 215 0.0 14.5 0.00 0.00 0.00 85 1011.1
20190617054722 11 248 0.0 14.5 0.00 0.00 0.00 85 1011.1
20190617054644 11 246 0.0 14.5 0.00 0.00 0.00 85 1011.1
20190617054222 10 123 1.6 14.5 0.00 0.00 0.00 85 1011.1
20190617054145 10 144 0.0 14.5 0.00 0.00 0.00 85 1011.1
20190617053721 10 95 1.6 14.5 0.00 0.00 0.00 85 1011.1
20190617053645 10 90 0.0 14.5 0.00 0.00 0.00 85 1011.1
20190617053223 10 107 0.0 14.5 0.00 0.00 0.00 85 1011.1
20190617053145 10 74 1.6 14.5 0.00 0.00 0.00 85 1011.1
20190617052723 10 200 1.6 14.5 0.00 0.00 0.00 86 1011.0
20190617052644 10 193 1.6 14.5 0.00 0.00 0.00 86 1011.0
20190617052222 10 203 1.6 14.5 0.00 0.00 0.00 86 1011.0
20190617052144 10 180 1.6 14.5 0.00 0.00 0.00 86 1011.0
20190617051722 10 155 3.2 14.5 0.00 0.00 0.00 86 1011.0
20190617051644 10 111 3.2 14.5 0.00 0.00 0.00 86 1011.0
20190617051222 10 116 0.0 14.5 0.00 0.00 0.00 86 1011.0
20190617051143 10 122 0.0 14.5 0.00 0.00 0.00 86 1011.0
20190617050721 10 85 0.0 14.5 0.00 0.00 0.00 86 1011.0
20190617050645 11 120 0.0 14.5 0.00 0.00 0.00 86 1011.0
20190617050222 11 195 0.0 14.5 0.00 0.00 0.00 86 1011.1
20190617050144 11 222 0.0 14.5 0.00 0.00 0.00 86 1011.1
20190617045722 11 202 1.6 14.5 0.00 0.00 0.00 86 1011.1
20190617045643 11 189 3.2 14.5 0.00 0.00 0.00 86 1011.1
20190617045221 11 209 0.0 14.5 0.00 0.00 0.00 86 1011.0
20190617045145 11 192 0.0 14.5 0.00 0.00 0.00 86 1011.0
20190617044723 11 169 3.2 14.5 0.00 0.00 0.00 86 1011.0
20190617044644 11 181 3.2 14.5 0.00 0.00 0.00 86 1011.0
20190617044223 11 202 0.0 14.5 0.00 0.00 0.00 85 1011.0
20190617044144 11 210 0.0 14.5 0.00 0.00 0.00 85 1011.0
20190617043722 11 187 3.2 14.5 0.00 0.00 0.00 85 1011.0
20190617043644 11 180 3.2 14.5 0.00 0.00 0.00 85 1011.0
20190617043222 10 198 1.6 14.5 0.00 0.00 0.00 85 1011.0
20190617043143 10 208 3.2 14.5 0.00 0.00 0.00 84 1011.0
20190617042722 10 224 1.6 14.5 0.00 0.00 0.00 84 1011.0
20190617042643 10 211 3.2 14.5 0.00 0.00 0.00 84 1011.0
20190617042221 11 234 0.0 14.5 0.00 0.00 0.00 84 1011.0
20190617042145 11 230 0.0 14.5 0.00 0.00 0.00 84 1011.0
20190617041723 11 213 0.0 14.5 0.00 0.00 0.00 84 1011.1
20190617041644 11 205 0.0 14.5 0.00 0.00 0.00 84 1011.1
20190617041223 11 211 3.2 14.5 0.00 0.00 0.00 84 1011.1
20190617041144 11 193 3.2 14.5 0.00 0.00 0.00 84 1011.1
20190617040721 11 226 1.6 14.5 0.00 0.00 0.00 84 1011.1
20190617040645 11 207 0.0 14.5 0.00 0.00 0.00 84 1011.1
20190617040223 11 184 0.0 14.5 0.00 0.00 0.00 84 1011.0
20190617040144 11 195 0.0 14.5 0.00 0.00 0.00 84 1011.0
20190617035722 11 187 3.2 14.5 0.00 0.00 0.00 84 1011.0
20190617035643 11 202 3.2 14.5 0.00 0.00 0.00 84 1011.0
20190617035221 11 180 3.2 14.5 0.00 0.00 0.00 84 1011.1
20190617035145 11 199 3.2 14.5 0.00 0.00 0.00 84 1011.1
20190617034722 11 196 4.8 14.5 0.00 0.00 0.00 83 1011.1
20190617034643 11 192 3.2 14.5 0.00 0.00 0.00 83 1011.1
20190617034222 11 223 3.2 14.5 0.00 0.00 0.00 83 1011.1
20190617034143 11 225 3.2 14.5 0.00 0.00 0.00 83 1011.1
20190617033721 11 216 3.2 14.5 0.00 0.00 0.00 83 1011.1
20190617033645 11 202 1.6 14.5 0.00 0.00 0.00 83 1011.1
20190617033221 11 202 0.0 14.5 0.00 0.00 0.00 83 1011.1
20190617033144 11 208 0.0 14.5 0.00 0.00 0.00 83 1011.1
20190617032723 11 217 0.0 14.5 0.00 0.00 0.00 83 1011.3
20190617032644 11 245 0.0 14.5 0.00 0.00 0.00 83 1011.3
20190617032222 11 193 0.0 14.5 0.00 0.00 0.00 83 1011.3
20190617032144 11 192 0.0 14.5 0.00 0.00 0.00 83 1011.3
20190617031721 11 206 3.2 14.5 0.00 0.00 0.00 83 1011.3
20190617031644 11 199 1.6 14.5 0.00 0.00 0.00 82 1011.2
20190617031223 11 232 1.6 14.5 0.00 0.00 0.00 82 1011.2
20190617031144 11 221 3.2 14.5 0.00 0.00 0.00 82 1011.2
20190617030721 11 180 4.8 14.5 0.00 0.00 0.00 82 1011.2
20190617030645 11 199 4.8 14.5 0.00 0.00 0.00 82 1011.2
20190617030221 11 202 1.6 14.5 0.00 0.00 0.00 82 1011.4
20190617030144 11 212 0.0 14.5 0.00 0.00 0.00 82 1011.4
20190617025722 11 196 1.6 14.5 0.00 0.00 0.00 82 1011.4
20190617025643 11 202 0.0 14.5 0.00 0.00 0.00 82 1011.4
20190617025221 11 197 0.0 14.5 0.00 0.00 0.00 82 1011.5
20190617025145 11 194 0.0 14.5 0.00 0.00 0.00 82 1011.5
20190617024721 11 278 0.0 14.5 0.00 0.00 0.00 82 1011.5
20190617024644 11 306 0.0 14.5 0.00 0.00 0.00 82 1011.5
20190617024223 11 245 3.2 14.5 0.00 0.00 0.00 82 1011.5
20190617024144 11 246 3.2 14.5 0.00 0.00 0.00 82 1011.5
20190617023722 12 270 1.6 14.5 0.00 0.00 0.00 81 1011.6
20190617023644 12 270 0.0 14.5 0.00 0.00 0.00 81 1011.6
20190617023222 12 292 3.2 14.5 0.00 0.00 0.00 81 1011.6
20190617023143 12 279 1.6 14.5 0.00 0.00 0.00 81 1011.6
20190617022722 12 315 3.2 14.5 0.00 0.00 0.00 81 1011.5
20190617022643 12 348 3.2 14.5 0.00 0.00 0.00 81 1011.5
20190617022222 12 338 3.2 14.5 0.00 0.00 0.00 80 1011.5
20190617022143 12 20 6.4 14.5 0.00 0.00 0.00 80 1011.5
20190617021722 12 31 4.8 14.5 0.00 0.00 0.00 80 1011.6
20190617021643 12 23 6.4 14.5 0.00 0.00 0.00 80 1011.8
20190617021221 12 325 6.4 14.5 0.00 0.00 0.00 79 1011.8
20190617021144 12 3 4.8 14.5 0.00 0.00 0.00 79 1011.8
20190617020722 13 358 6.4 14.5 0.00 0.00 0.00 79 1011.8
20190617020643 13 45 6.4 14.5 0.00 0.00 0.00 79 1011.8
20190617020221 13 36 8.0 14.5 0.00 0.00 0.00 79 1011.8
20190617020144 13 22 8.0 14.5 0.00 0.00 0.00 79 1011.8
20190617015721 13 46 8.0 14.5 0.00 0.00 0.00 78 1011.8
20190617015644 13 33 8.0 14.5 0.00 0.00 0.00 78 1011.8
20190617015222 13 48 8.0 14.5 0.00 0.00 0.00 78 1011.8
20190617015143 13 36 8.0 14.5 0.00 0.00 0.00 78 1011.8
20190617014722 13 51 8.0 14.5 0.00 0.00 0.00 78 1011.8
20190617014643 13 68 8.0 14.5 0.00 0.00 0.00 78 1011.8
20190617014221 13 22 9.7 14.5 0.00 0.00 0.00 78 1011.8
20190617014143 13 50 9.7 14.5 0.00 0.00 0.00 78 1011.9
20190617013721 13 32 9.7 14.5 0.00 0.00 0.00 78 1011.9
20190617013642 13 50 8.0 14.5 0.00 0.00 0.00 78 1011.9
20190617013221 13 62 11.3 14.5 0.00 0.00 0.00 78 1011.9
20190617013144 13 68 9.7 14.5 0.00 0.00 0.00 78 1011.9
20190617012720 13 0 11.3 14.5 0.00 0.00 0.00 78 1012.0
20190617012644 13 22 9.7 14.5 0.00 0.00 0.00 78 1012.0
20190617012222 13 51 8.0 14.5 0.00 0.00 0.00 78 1012.0
20190617012143 13 42 9.7 14.5 0.00 0.00 0.00 78 1012.0
20190617011721 13 48 8.0 14.5 0.00 0.00 0.00 78 1012.0
20190617011644 13 35 8.0 14.5 0.00 0.00 0.00 78 1012.0
20190617011220 13 35 6.4 14.5 0.00 0.00 0.00 77 1012.0
20190617011144 13 45 8.0 14.5 0.00 0.00 0.00 77 1012.0
20190617010721 13 53 8.0 14.5 0.00 0.00 0.00 77 1012.0
20190617010642 13 45 8.0 14.5 0.00 0.00 0.00 77 1012.0
20190617010221 13 36 8.0 14.5 0.00 0.00 0.00 77 1012.0
20190617010144 13 45 9.7 14.5 0.00 0.00 0.00 77 1012.0
20190617005721 13 45 8.0 14.5 0.00 0.00 0.00 77 1012.0
20190617005643 13 47 8.0 14.5 0.00 0.00 0.00 77 1012.0
20190617005221 13 55 8.0 14.5 0.00 0.00 0.00 77 1012.2
20190617005142 13 64 8.0 14.5 0.00 0.00 0.00 77 1012.2
20190617004722 13 67 8.0 14.5 0.00 0.00 0.00 77 1012.2
20190617004643 13 63 8.0 14.5 0.00 0.00 0.00 77 1012.2
20190617004221 13 50 8.0 14.5 0.00 0.00 0.00 77 1012.2
20190617004143 13 44 6.4 14.5 0.00 0.00 0.00 77 1012.1
20190617003722 13 32 6.4 14.5 0.00 0.00 0.00 76 1012.1
20190617003643 13 31 6.4 14.5 0.00 0.00 0.00 76 1012.1
20190617003222 13 67 6.4 14.5 0.00 0.00 0.00 76 1012.1
20190617003143 13 38 8.0 14.5 0.00 0.00 0.00 76 1012.1
20190617002720 13 32 8.0 14.5 0.00 0.00 0.00 76 1011.9
20190617002644 13 49 8.0 14.5 0.00 0.00 0.00 76 1011.9
20190617002222 14 28 8.0 14.5 0.00 0.00 0.00 76 1011.9
20190617002143 14 22 8.0 14.5 0.00 0.00 0.00 75 1011.9
20190617001722 14 31 8.0 14.5 0.00 0.00 0.00 75 1012.0
20190617001643 14 37 9.7 14.5 0.00 0.00 0.00 75 1012.0
20190617001221 14 45 11.3 14.5 0.00 0.00 0.00 75 1012.0
20190617001143 14 53 11.3 14.5 0.00 0.00 0.00 75 1012.0
20190617000721 14 22 11.3 14.5 0.00 0.00 0.00 75 1012.0
20190617000643 14 28 11.3 14.5 0.00 0.00 0.00 74 1012.0
20190617000221 14 35 11.3 14.5 0.00 0.00 0.00 74 1012.0
20190617000142 14 31 12.9 14.5 0.00 0.00 0.00 74 1012.0
20190616235720 14 31 11.3 14.5 0.00 0.00 0.00 74 1012.0
20190616235644 14 35 9.7 14.5 0.00 0.00 0.00 74 1012.0
20190616235222 14 41 12.9 14.5 0.00 0.00 0.00 74 1012.2
20190616235143 14 33 9.7 14.5 0.00 0.00 0.00 74 1012.2
20190616234722 14 32 9.7 14.5 0.00 0.00 0.00 74 1012.2
20190616234643 14 43 11.3 14.5 0.00 0.00 0.00 74 1012.2
20190616234221 14 9 9.7 14.5 0.00 0.00 0.00 73 1012.2
20190616234143 14 22 9.7 14.5 0.00 0.00 0.00 73 1012.3
20190616233721 14 43 9.7 14.5 0.00 0.00 0.00 73 1012.3
20190616233642 14 28 9.7 14.5 0.00 0.00 0.00 73 1012.3
20190616233221 14 36 9.7 14.5 0.00 0.00 0.00 73 1012.3
20190616233142 14 37 11.3 14.5 0.00 0.00 0.00 73 1012.3
20190616232720 14 38 11.3 14.5 0.00 0.00 0.00 73 1012.3
20190616232644 14 45 9.7 12.9 0.00 0.00 0.00 73 1012.3
20190616232221 14 41 9.7 12.9 0.00 0.00 0.00 73 1012.3
20190616232142 14 10 8.0 12.9 0.00 0.00 0.00 73 1012.3
20190616231720 14 38 8.0 12.9 0.00 0.00 0.00 72 1012.4
20190616231642 15 39 9.7 12.9 0.00 0.00 0.00 72 1012.4
20190616231220 15 68 9.7 12.9 0.00 0.00 0.00 72 1012.4
20190616231144 15 44 9.7 12.9 0.00 0.00 0.00 72 1012.4
20190616230722 15 22 9.7 11.3 0.00 0.00 0.00 71 1012.4
20190616230644 15 22 9.7 11.3 0.00 0.00 0.00 71 1012.4
20190616230221 15 36 9.7 25.7 0.00 0.00 0.00 71 1012.3
20190616230143 15 22 9.7 25.7 0.00 0.00 0.00 71 1012.3
20190616225721 15 32 9.7 25.7 0.00 0.00 0.00 70 1012.3
20190616225643 15 72 11.3 25.7 0.00 0.00 0.00 70 1012.3
20190616225221 15 62 11.3 25.7 0.00 0.00 0.00 70 1012.6
20190616225143 15 25 9.7 25.7 0.00 0.00 0.00 70 1012.6
20190616224721 15 18 12.9 25.7 0.00 0.00 0.00 70 1012.6
20190616224643 15 45 11.3 25.7 0.00 0.00 0.00 70 1012.6
20190616224221 15 34 12.9 25.7 0.00 0.00 0.00 70 1012.6
20190616224144 15 39 11.3 25.7 0.00 0.00 0.00 70 1012.4
20190616223720 15 37 11.3 25.7 0.00 0.00 0.00 69 1012.3
20190616223643 15 22 12.9 25.7 0.00 0.00 0.00 69 1012.3
20190616223221 15 23 12.9 25.7 0.00 0.00 0.00 69 1012.3
20190616223142 15 36 9.7 25.7 0.00 0.00 0.00 69 1012.3
20190616222720 15 22 11.3 25.7 0.00 0.00 0.00 69 1012.5
20190616222644 15 22 11.3 25.7 0.00 0.00 0.00 69 1012.5
20190616222222 15 45 9.7 25.7 0.00 0.00 0.00 69 1012.5
20190616222143 15 37 9.7 25.7 0.00 0.00 0.00 69 1012.5
20190616221721 15 22 8.0 25.7 0.00 0.00 0.00 69 1012.5
20190616221643 15 22 9.7 25.7 0.00 0.00 0.00 69 1012.4
20190616221221 15 27 9.7 25.7 0.00 0.00 0.00 69 1012.4
20190616221143 15 32 9.7 25.7 0.00 0.00 0.00 69 1012.4
20190616220720 15 24 12.9 25.7 0.00 0.00 0.00 69 1012.4
20190616220643 15 33 9.7 25.7 0.00 0.00 0.00 68 1012.4
20190616220221 15 40 11.3 25.7 0.00 0.00 0.00 68 1012.5
20190616220143 15 22 9.7 25.7 0.00 0.00 0.00 68 1012.5
20190616215721 15 9 8.0 25.7 0.00 0.00 0.00 67 1012.5
20190616215642 15 22 8.0 25.7 0.00 0.00 0.00 67 1012.5
20190616215221 16 58 8.0 25.7 0.00 0.00 0.00 67 1012.6
20190616215142 16 22 11.3 25.7 0.00 0.00 0.00 67 1012.6
20190616214720 16 11 9.7 25.7 0.00 0.00 0.00 66 1012.6
20190616214642 16 24 9.7 25.7 0.00 0.00 0.00 66 1012.6
20190616214220 16 24 9.7 25.7 0.00 0.00 0.00 65 1012.6
20190616214141 16 64 8.0 25.7 0.00 0.00 0.00 65 1012.6
20190616213720 16 22 11.3 25.7 0.00 0.00 0.00 64 1012.6
20190616213642 16 43 9.7 25.7 0.00 0.00 0.00 64 1012.6
20190616213220 16 36 9.7 25.7 0.00 0.00 0.00 64 1012.6
20190616213142 16 22 9.7 25.7 0.00 0.00 0.00 64 1012.6
20190616212721 16 36 11.3 25.7 0.00 0.00 0.00 63 1012.7
20190616212643 16 24 11.3 25.7 0.00 0.00 0.00 63 1012.7
20190616212221 16 45 9.7 25.7 0.00 0.00 0.00 63 1012.7
20190616212142 16 34 9.7 25.7 0.00 0.00 0.00 63 1012.7
20190616211720 16 22 8.0 25.7 0.00 0.00 0.00 63 1012.6
20190616211642 16 22 8.0 25.7 0.00 0.00 0.00 63 1012.5
20190616211220 16 22 9.7 25.7 0.00 0.00 0.00 63 1012.5
20190616211141 16 30 9.7 25.7 0.00 0.00 0.00 63 1012.5
20190616210720 16 35 8.0 25.7 0.00 0.00 0.00 63 1012.5
20190616210643 16 34 8.0 25.7 0.00 0.00 0.00 63 1012.5
20190616210219 16 38 8.0 25.7 0.00 0.00 0.00 63 1012.4
20190616210143 16 20 11.3 25.7 0.00 0.00 0.00 63 1012.4
20190616205721 16 33 8.0 25.7 0.00 0.00 0.00 63 1012.4
20190616205643 16 29 8.0 25.7 0.00 0.00 0.00 63 1012.4
20190616205221 17 32 6.4 25.7 0.00 0.00 0.00 63 1012.2
20190616205143 17 32 6.4 25.7 0.00 0.00 0.00 63 1012.2
20190616204719 17 28 8.0 25.7 0.00 0.00 0.00 63 1012.2
20190616204643 17 45 8.0 25.7 0.00 0.00 0.00 62 1012.2
20190616204221 17 2 9.7 25.7 0.00 0.00 0.00 62 1012.2
20190616204143 17 42 8.0 25.7 0.00 0.00 0.00 62 1011.9
20190616203721 17 26 8.0 25.7 0.00 0.00 0.00 62 1011.9
20190616203642 17 45 8.0 25.7 0.00 0.00 0.00 61 1011.9
20190616203220 17 35 8.0 25.7 0.00 0.00 0.00 61 1011.9
20190616203142 17 22 9.7 25.7 0.00 0.00 0.00 61 1011.9
20190616202719 17 22 11.3 25.7 0.00 0.00 0.00 60 1012.0
20190616202643 17 22 8.0 25.7 0.00 0.00 0.00 60 1012.0
20190616202221 17 67 9.7 25.7 0.00 0.00 0.00 59 1012.0
20190616202142 17 72 9.7 25.7 0.00 0.00 0.00 59 1012.0
20190616201720 18 28 9.7 25.7 0.00 0.00 0.00 58 1011.9
20190616201642 18 57 9.7 25.7 0.00 0.00 0.00 58 1011.8
20190616201220 18 31 8.0 25.7 0.00 0.00 0.00 58 1011.8
20190616201142 18 39 8.0 25.7 0.00 0.00 0.00 58 1011.8
20190616200720 18 16 6.4 25.7 0.00 0.00 0.00 58 1011.8
20190616200641 18 358 9.7 25.7 0.00 0.00 0.00 57 1011.8
20190616200219 18 34 14.5 25.7 0.00 0.00 0.00 57 1011.8
20190616200143 19 9 12.9 25.7 0.00 0.00 0.00 57 1011.8
20190616195719 19 30 8.0 25.7 0.00 0.00 0.00 57 1011.8
20190616195643 19 22 8.0 25.7 0.00 0.00 0.00 56 1011.8
20190616195220 20 23 11.3 25.7 0.00 0.00 0.00 56 1011.6
20190616195141 20 17 12.9 25.7 0.00 0.00 0.00 56 1011.6
20190616194719 20 69 11.3 25.7 0.00 0.00 0.00 55 1011.6
20190616194643 20 31 9.7 25.7 0.00 0.00 0.00 55 1011.6
20190616194219 20 358 9.7 25.7 0.00 0.00 0.00 55 1011.6
20190616194143 20 352 8.0 25.7 0.00 0.00 0.00 55 1011.6
20190616193721 21 58 9.7 25.7 0.00 0.00 0.00 54 1011.6
20190616193642 21 13 9.7 25.7 0.00 0.00 0.00 54 1011.6
20190616193220 21 57 8.0 25.7 0.00 0.00 0.00 53 1011.6
20190616193142 21 39 9.7 25.7 0.00 0.00 0.00 53 1011.6
20190616192720 21 351 8.0 25.7 0.00 0.00 0.00 53 1011.4
20190616192642 22 359 8.0 25.7 0.00 0.00 0.00 52 1011.4
20190616192221 22 341 6.4 25.7 0.00 0.00 0.00 51 1011.4
20190616192142 22 0 8.0 25.7 0.00 0.00 0.00 51 1011.4
20190616191720 22 324 8.0 25.7 0.00 0.00 0.00 51 1011.4
20190616191642 22 338 6.4 25.7 0.00 0.00 0.00 51 1011.4
20190616191219 22 0 6.4 25.7 0.00 0.00 0.00 51 1011.4
20190616191143 22 338 6.4 25.7 0.00 0.00 0.00 51 1011.4
20190616190721 22 22 8.0 25.7 0.00 0.00 0.00 51 1011.4
20190616190642 22 356 8.0 25.7 0.00 0.00 0.00 51 1011.4
20190616190220 22 280 11.3 25.7 0.00 0.00 0.00 50 1011.4
20190616190141 22 318 11.3 25.7 0.00 0.00 0.00 50 1011.4
20190616185719 22 290 11.3 25.7 0.00 0.00 0.00 50 1011.4
20190616185643 22 300 11.3 25.7 0.00 0.00 0.00 50 1011.4
20190616185219 23 328 14.5 25.7 0.00 0.00 0.00 50 1011.4
20190616185142 23 341 12.9 25.7 0.00 0.00 0.00 50 1011.4
20190616184720 23 317 9.7 25.7 0.00 0.00 0.00 50 1011.4
20190616184642 23 331 9.7 25.7 0.00 0.00 0.00 50 1011.4
20190616184219 23 308 9.7 25.7 0.00 0.00 0.00 50 1011.4
20190616184143 23 338 9.7 25.7 0.00 0.00 0.00 50 1011.4
20190616183719 23 296 11.3 25.7 0.00 0.00 0.00 50 1011.5
20190616183642 23 304 14.5 25.7 0.00 0.00 0.00 50 1011.5
20190616183220 23 275 9.7 25.7 0.00 0.00 0.00 50 1011.5
20190616183142 23 291 11.3 25.7 0.00 0.00 0.00 50 1011.5
20190616182720 23 300 12.9 25.7 0.00 0.00 0.00 50 1011.5
20190616182642 23 326 14.5 25.7 0.00 0.00 0.00 50 1011.5
20190616182220 23 292 12.9 25.7 0.00 0.00 0.00 50 1011.5
20190616182141 23 283 14.5 25.7 0.00 0.00 0.00 50 1011.5
20190616181720 23 280 16.1 25.7 0.00 0.00 0.00 49 1011.2
20190616181642 23 270 14.5 25.7 0.00 0.00 0.00 49 1011.2
20190616181220 23 292 12.9 25.7 0.00 0.00 0.00 50 1011.2
20190616181142 23 276 9.7 25.7 0.00 0.00 0.00 50 1011.2
20190616180719 23 270 16.1 25.7 0.00 0.00 0.00 50 1011.2
20190616180643 23 270 16.1 25.7 0.00 0.00 0.00 50 1011.2
20190616180218 23 291 16.1 25.7 0.00 0.00 0.00 50 1011.2
20190616180142 23 270 17.7 25.7 0.00 0.00 0.00 50 1011.2
20190616175719 23 278 17.7 25.7 0.00 0.00 0.00 50 1011.2
20190616175641 23 305 16.1 25.7 0.00 0.00 0.00 50 1011.2
20190616175219 23 270 14.5 25.7 0.00 0.00 0.00 50 1011.1
20190616175142 23 303 16.1 25.7 0.00 0.00 0.00 50 1011.1
20190616174720 23 309 14.5 25.7 0.00 0.00 0.00 50 1011.1
20190616174641 23 279 17.7 25.7 0.00 0.00 0.00 50 1011.1
20190616174219 23 273 14.5 25.7 0.00 0.00 0.00 50 1011.1
20190616174141 23 292 19.3 25.7 0.00 0.00 0.00 50 1011.0
20190616173719 24 286 17.7 25.7 0.00 0.00 0.00 50 1010.9
20190616173642 24 292 12.9 25.7 0.00 0.00 0.00 50 1010.9
20190616173219 24 292 16.1 25.7 0.00 0.00 0.00 50 1010.9
20190616173142 24 292 16.1 25.7 0.00 0.00 0.00 50 1010.9
20190616172720 24 278 19.3 25.7 0.00 0.00 0.00 49 1010.9
20190616172642 25 275 16.1 25.7 0.00 0.00 0.00 49 1010.9
20190616172219 24 292 14.5 25.7 0.00 0.00 0.00 50 1010.9
20190616172142 24 299 16.1 25.7 0.00 0.00 0.00 50 1010.9
20190616171718 25 292 16.1 25.7 0.00 0.00 0.00 50 1010.8
20190616171642 24 283 19.3 25.7 0.00 0.00 0.00 50 1010.8
20190616171219 25 279 16.1 25.7 0.00 0.00 0.00 49 1010.8
20190616171141 25 283 17.7 25.7 0.00 0.00 0.00 49 1010.8
20190616170719 25 280 20.9 25.7 0.00 0.00 0.00 49 1010.8
20190616170642 25 270 20.9 25.7 0.00 0.00 0.00 49 1010.8
20190616170220 25 283 22.5 25.7 0.00 0.00 0.00 48 1010.6
20190616170141 25 270 19.3 25.7 0.00 0.00 0.00 47 1010.6
20190616165719 25 277 17.7 25.7 0.00 0.00 0.00 47 1010.6
20190616165641 26 309 17.7 25.7 0.00 0.00 0.00 47 1010.6
20190616165220 26 270 12.9 25.7 0.00 0.00 0.00 47 1010.6
20190616165140 26 270 14.5 25.7 0.00 0.00 0.00 47 1010.6
20190616164719 26 296 17.7 25.7 0.00 0.00 0.00 47 1010.6
20190616164642 26 270 14.5 25.7 0.00 0.00 0.00 47 1010.6
20190616164219 26 297 12.9 25.7 0.00 0.00 0.00 47 1010.6
20190616164141 26 316 12.9 25.7 0.00 0.00 0.00 47 1010.5
20190616163719 27 292 16.1 25.7 0.00 0.00 0.00 46 1010.4
20190616163640 27 292 12.9 25.7 0.00 0.00 0.00 46 1010.4
20190616163219 26 315 12.9 25.7 0.00 0.00 0.00 46 1010.4
20190616163142 26 304 14.5 25.7 0.00 0.00 0.00 46 1010.4
20190616162718 26 288 19.3 25.7 0.00 0.00 0.00 46 1010.3
20190616162642 26 292 17.7 25.7 0.00 0.00 0.00 46 1010.3
20190616162220 27 284 14.5 25.7 0.00 0.00 0.00 46 1010.3
20190616162141 27 297 12.9 25.7 0.00 0.00 0.00 46 1010.3
20190616161720 27 270 14.5 20.9 0.00 0.00 0.00 44 1010.2
20190616161642 27 283 17.7 20.9 0.00 0.00 0.00 44 1010.2
20190616161219 27 313 9.7 20.9 0.00 0.00 0.00 44 1010.2
20190616161141 27 335 4.8 20.9 0.00 0.00 0.00 44 1010.2
20190616160720 28 315 4.8 20.9 0.00 0.00 0.00 44 1010.2
20190616160641 27 357 4.8 20.9 0.00 0.00 0.00 44 1010.2
20190616160220 28 289 11.3 20.9 0.00 0.00 0.00 44 1010.2
20190616160141 27 300 8.0 20.9 0.00 0.00 0.00 44 1010.2
20190616155718 28 295 12.9 20.9 0.00 0.00 0.00 44 1010.2
20190616155642 28 276 12.9 20.9 0.00 0.00 0.00 44 1010.2
20190616155220 28 21 12.9 20.9 0.00 0.00 0.00 44 1010.3
20190616155141 28 323 12.9 20.9 0.00 0.00 0.00 44 1010.3
20190616154719 28 301 14.5 19.3 0.00 0.00 0.00 42 1010.3
20190616154640 28 305 8.0 19.3 0.00 0.00 0.00 42 1010.3
20190616154218 28 345 8.0 19.3 0.00 0.00 0.00 37 1010.3
20190616154142 28 356 6.4 19.3 0.00 0.00 0.00 37 1010.3
20190616153718 28 289 4.8 19.3 0.00 0.00 0.00 36 1010.2
20190616153641 28 311 4.8 19.3 0.00 0.00 0.00 36 1010.2
20190616153220 28 219 1.6 19.3 0.00 0.00 0.00 36 1010.2
20190616153141 29 207 6.4 19.3 0.00 0.00 0.00 35 1010.2
20190616152719 28 358 4.8 19.3 0.00 0.00 0.00 36 1010.1
20190616152641 29 279 4.8 19.3 0.00 0.00 0.00 36 1010.1
20190616152219 28 243 6.4 19.3 0.00 0.00 0.00 37 1010.1
20190616152140 28 193 3.2 19.3 0.00 0.00 0.00 36 1010.1
20190616151719 29 236 4.8 19.3 0.00 0.00 0.00 35 1010.2
20190616151640 29 248 6.4 19.3 0.00 0.00 0.00 35 1010.2
20190616151218 30 222 11.3 19.3 0.00 0.00 0.00 35 1010.2
20190616151142 30 237 11.3 19.3 0.00 0.00 0.00 35 1010.2
20190616150718 28 246 4.8 19.3 0.00 0.00 0.00 37 1010.2
20190616150641 28 136 3.2 19.3 0.00 0.00 0.00 38 1010.2
20190616150221 28 0 3.2 19.3 0.00 0.00 0.00 38 1010.4
20190616150141 28 255 4.8 19.3 0.00 0.00 0.00 37 1010.4
20190616145719 30 235 9.7 19.3 0.00 0.00 0.00 37 1010.4
20190616145641 30 292 11.3 19.3 0.00 0.00 0.00 37 1010.4
20190616145218 29 270 6.4 19.3 0.00 0.00 0.00 37 1010.5
20190616145141 28 270 4.8 19.3 0.00 0.00 0.00 37 1010.5
20190616144720 28 106 3.2 19.3 0.00 0.00 0.00 38 1010.5
20190616144641 28 167 6.4 19.3 0.00 0.00 0.00 38 1010.5
20190616144218 28 182 4.8 19.3 0.00 0.00 0.00 38 1010.5
20190616144140 28 160 6.4 19.3 0.00 0.00 0.00 38 1010.6
20190616143718 28 171 6.4 19.3 0.00 0.00 0.00 38 1010.6
20190616143641 28 256 6.4 19.3 0.00 0.00 0.00 38 1010.6
20190616143218 28 90 4.8 19.3 0.00 0.00 0.00 39 1010.6
20190616143141 28 253 4.8 19.3 0.00 0.00 0.00 39 1010.6
20190616142719 28 229 8.0 19.3 0.00 0.00 0.00 39 1010.8
20190616142641 28 202 9.7 19.3 0.00 0.00 0.00 39 1010.8
20190616142219 28 208 9.7 19.3 0.00 0.00 0.00 40 1010.8
20190616142140 28 212 6.4 19.3 0.00 0.00 0.00 40 1010.8
20190616141719 28 270 6.4 19.3 0.00 0.00 0.00 40 1010.9
20190616141640 28 262 8.0 19.3 0.00 0.00 0.00 40 1010.9
20190616141218 28 260 8.0 19.3 0.00 0.00 0.00 41 1010.9
20190616141140 27 263 4.8 19.3 0.00 0.00 0.00 41 1010.9
20190616140718 27 193 9.7 19.3 0.00 0.00 0.00 41 1010.9
20190616140641 28 148 8.0 19.3 0.00 0.00 0.00 41 1010.9
20190616140218 28 252 9.7 19.3 0.00 0.00 0.00 41 1010.8
20190616140141 27 265 6.4 19.3 0.00 0.00 0.00 41 1010.8
20190616135720 27 220 4.8 19.3 0.00 0.00 0.00 41 1010.8
20190616135641 27 230 6.4 19.3 0.00 0.00 0.00 41 1010.8
20190616135219 27 68 6.4 19.3 0.00 0.00 0.00 41 1010.9
20190616135140 27 82 6.4 19.3 0.00 0.00 0.00 41 1010.9
20190616134719 28 210 8.0 19.3 0.00 0.00 0.00 40 1010.9
20190616134640 27 261 6.4 19.3 0.00 0.00 0.00 41 1010.9
20190616134218 28 266 8.0 19.3 0.00 0.00 0.00 41 1010.9
20190616134140 28 245 11.3 19.3 0.00 0.00 0.00 41 1010.9
20190616133718 27 198 9.7 19.3 0.00 0.00 0.00 41 1010.9
20190616133641 27 261 6.4 19.3 0.00 0.00 0.00 41 1010.9
20190616133218 27 238 8.0 19.3 0.00 0.00 0.00 41 1010.9
20190616133141 27 220 8.0 19.3 0.00 0.00 0.00 41 1010.9
20190616132717 27 268 12.9 19.3 0.00 0.00 0.00 41 1011.2
20190616132641 27 250 14.5 19.3 0.00 0.00 0.00 41 1011.2
20190616132219 27 209 9.7 19.3 0.00 0.00 0.00 41 1011.2
20190616132140 27 259 6.4 19.3 0.00 0.00 0.00 43 1011.2